EW1379 Weather Reports


Display with metric or nautical units.
time (UTC)temp
F
wind
direction
speed
MPH
gust
MPH
rain 1hr
in
rain 24hr
in
rain mn
in
humidity
%
barometer
mb
20260504201033 74 192 4.0 9.0 0.00 0.00 0.00 39 1003.4
20260504200602 74 214 3.0 11.0 0.00 0.00 0.00 38 1003.5
20260504200027 74 303 3.0 13.0 0.00 0.00 0.00 39 1003.5
20260504195518 74 242 5.0 13.0 0.00 0.00 0.00 37 1003.7
20260504195026 73 205 5.0 12.0 0.00 0.00 0.00 38 1003.7
20260504194534 73 224 4.0 7.0 0.00 0.00 0.00 40 1003.8
20260504194029 74 204 3.0 9.0 0.00 0.00 0.00 40 1003.8
20260504193538 74 192 4.0 11.0 0.00 0.00 0.00 41 1003.8
20260504193027 73 206 6.0 11.0 0.00 0.00 0.00 41 1003.9
20260504192539 73 232 3.0 8.0 0.00 0.00 0.00 41 1003.9
20260504192024 73 254 5.0 9.0 0.00 0.00 0.00 39 1003.9
20260504191524 73 240 6.0 15.0 0.00 0.00 0.00 40 1003.9
20260504191033 74 196 6.0 12.0 0.00 0.00 0.00 41 1003.8
20260504190522 74 211 4.0 9.0 0.00 0.00 0.00 43 1004.0
20260504190031 73 233 5.0 9.0 0.00 0.00 0.00 44 1004.2
20260504185526 73 187 6.0 15.0 0.00 0.00 0.00 43 1004.1
20260504185025 73 205 5.0 15.0 0.00 0.00 0.00 42 1004.2
20260504184517 73 258 6.0 15.0 0.00 0.00 0.00 43 1004.2
20260504184028 73 195 5.0 11.0 0.00 0.00 0.00 44 1004.3
20260504183529 73 184 5.0 11.0 0.00 0.00 0.00 44 1004.5
20260504183036 72 198 5.0 13.0 0.00 0.00 0.00 45 1004.5
20260504182522 72 181 6.0 13.0 0.00 0.00 0.00 45 1004.4
20260504182036 72 197 5.0 9.0 0.00 0.00 0.00 44 1004.6
20260504181526 72 188 4.0 8.0 0.00 0.00 0.00 46 1004.6
20260504181046 72 272 4.0 10.0 0.00 0.00 0.00 47 1004.6
20260504180522 72 242 4.0 11.0 0.00 0.00 0.00 46 1004.6
20260504180022 72 238 6.0 11.0 0.00 0.00 0.00 45 1004.7
20260504175551 72 212 4.0 12.0 0.00 0.00 0.00 47 1004.8
20260504175037 71 211 7.0 12.0 0.00 0.00 0.00 47 1004.8
20260504174526 71 185 5.0 9.0 0.00 0.00 0.00 47 1004.9
20260504174036 71 252 6.0 12.0 0.00 0.00 0.00 46 1004.9
20260504173531 71 231 6.0 14.0 0.00 0.00 0.00 48 1004.8
20260504173037 71 220 6.0 14.0 0.00 0.00 0.00 46 1004.9
20260504172529 71 254 5.0 14.0 0.00 0.00 0.00 48 1004.9
20260504172104 71 182 8.0 14.0 0.00 0.00 0.00 46 1004.9
20260504171612 70 255 5.0 12.0 0.00 0.00 0.00 46 1005.1
20260504171028 70 211 6.0 17.0 0.00 0.00 0.00 48 1005.1
20260504170549 70 210 9.0 17.0 0.00 0.00 0.00 46 1005.1
20260504151024 65 196 6.0 11.0 0.00 0.00 0.00 51 1006.1
20260504150553 65 203 5.0 11.0 0.00 0.00 0.00 51 1006.2
20260504140522 63 197 5.0 14.0 0.00 0.00 0.00 50 1006.1
20260504130525 60 186 4.0 10.0 0.00 0.00 0.00 53 1006.7
20260504110549 54 194 4.0 8.0 0.00 0.00 0.00 55 1006.9
20260504100528 53 200 4.0 7.0 0.00 0.00 0.00 55 1006.7
20260504081550 52 199 4.0 7.0 0.00 0.00 0.00 56 1007.4
20260504081047 53 205 4.0 7.0 0.00 0.00 0.00 56 1007.4
20260504080522 53 193 5.0 10.0 0.00 0.00 0.00 56 1007.5
20260504050537 54 196 2.0 6.0 0.00 0.00 0.00 55 1008.4
20260504045552 54 194 3.0 5.0 0.00 0.00 0.00 54 1008.6
20260504045037 55 185 3.0 7.0 0.00 0.00 0.00 54 1008.5
20260504044549 55 198 4.0 7.0 0.00 0.00 0.00 54 1008.6
20260504044046 55 196 3.0 6.0 0.00 0.00 0.00 53 1008.6
20260504043556 55 196 3.0 8.0 0.00 0.00 0.00 54 1008.6
20260504043046 55 161 4.0 8.0 0.00 0.00 0.00 53 1008.6
20260504042528 55 196 5.0 9.0 0.00 0.00 0.00 53 1008.6
20260504042045 55 195 3.0 7.0 0.00 0.00 0.00 53 1008.5
20260504041526 56 202 4.0 8.0 0.00 0.00 0.00 53 1008.6
20260504041047 56 199 4.0 8.0 0.00 0.00 0.00 53 1008.6
20260504040544 56 205 3.0 7.0 0.00 0.00 0.00 53 1008.5
20260504040030 56 185 3.0 5.0 0.00 0.00 0.00 53 1008.5
20260504035541 56 194 3.0 5.0 0.00 0.00 0.00 53 1008.5
20260504035109 56 190 3.0 7.0 0.00 0.00 0.00 53 1008.4
20260504034537 56 205 3.0 7.0 0.00 0.00 0.00 53 1008.5
20260504034044 56 187 2.0 5.0 0.00 0.00 0.00 53 1008.4
20260504033611 56 198 2.0 6.0 0.00 0.00 0.00 53 1008.4
20260504033025 56 202 3.0 8.0 0.00 0.00 0.00 53 1008.5
20260504032615 56 223 3.0 8.0 0.00 0.00 0.00 52 1008.5
20260504032030 56 202 3.0 6.0 0.00 0.00 0.00 53 1008.5
20260504031541 56 208 3.0 6.0 0.00 0.00 0.00 53 1008.5
20260504031036 56 221 2.0 5.0 0.00 0.00 0.00 54 1008.5
20260504030541 56 222 2.0 6.0 0.00 0.00 0.00 53 1008.6
20260504030039 56 205 3.0 6.0 0.00 0.00 0.00 53 1008.5
20260504025519 56 205 3.0 8.0 0.00 0.00 0.00 54 1008.6
20260504025034 56 202 4.0 8.0 0.00 0.00 0.00 53 1008.6
20260504024518 56 198 2.0 7.0 0.00 0.00 0.00 54 1008.7
20260504024053 55 234 3.0 7.0 0.00 0.00 0.00 55 1008.7
20260504023530 55 218 3.0 6.0 0.00 0.00 0.00 54 1008.7
20260504023110 55 241 3.0 6.0 0.00 0.00 0.00 55 1008.8
20260504022538 55 221 2.0 4.0 0.00 0.00 0.00 55 1008.9
20260504022022 54 256 2.0 4.0 0.00 0.00 0.00 57 1009.0
20260504021537 54 200 0.0 2.0 0.00 0.00 0.00 56 1008.9
20260504021025 54 200 0.0 2.0 0.00 0.00 0.00 57 1008.9
20260504020545 54 200 1.0 3.0 0.00 0.00 0.00 58 1008.9
20260504020059 54 200 2.0 3.0 0.00 0.00 0.00 57 1008.9
20260504015528 54 200 0.0 3.0 0.00 0.00 0.00 57 1008.9
20260504015034 54 200 1.0 5.0 0.00 0.00 0.00 57 1008.8
20260504014525 54 200 3.0 5.0 0.00 0.00 0.00 56 1008.8
20260504014034 54 246 0.0 3.0 0.00 0.00 0.00 57 1009.0
20260504013547 54 188 0.0 7.0 0.00 0.00 0.00 57 1009.1
20260504013052 55 262 2.0 7.0 0.00 0.00 0.00 57 1009.1
20260504012526 55 220 1.0 9.0 0.00 0.00 0.00 57 1009.3
20260504012020 54 241 4.0 10.0 0.00 0.00 0.00 57 1009.4
20260504011534 54 245 4.0 11.0 0.00 0.00 0.00 57 1009.3
20260504011029 54 244 4.0 11.0 0.00 0.00 0.00 57 1009.3
20260504010519 54 221 3.0 10.0 0.00 0.00 0.00 58 1009.2
20260504010038 54 267 2.0 7.0 0.00 0.00 0.00 59 1009.1
20260504005526 54 267 4.0 8.0 0.00 0.00 0.00 59 1009.3
20260504005048 54 218 3.0 14.0 0.00 0.00 0.00 59 1009.5
20260504004609 54 254 7.0 14.0 0.00 0.00 0.00 58 1009.6
20260504004044 55 259 6.0 15.0 0.00 0.00 0.00 58 1009.7
20260504003533 55 311 6.0 15.0 0.00 0.00 0.00 57 1009.6
20260504003027 55 262 3.0 11.0 0.00 0.00 0.00 57 1009.5
20260504002536 55 332 4.0 9.0 0.00 0.00 0.00 56 1009.3
20260504002026 55 220 4.0 14.0 0.00 0.00 0.00 55 1009.4
20260504001540 55 227 5.0 14.0 0.00 0.00 0.00 54 1009.3
20260504001031 55 266 3.0 10.0 0.00 0.00 0.00 54 1009.1
20260504000538 55 248 4.0 10.0 0.00 0.00 0.00 53 1009.0
20260504000046 55 254 5.0 10.0 0.00 0.00 0.00 53 1009.0
20260503235523 56 271 5.0 25.0 0.00 0.00 0.00 52 1009.1
20260503235048 56 218 9.0 25.0 0.00 0.00 0.00 52 1009.1
20260503234541 56 236 15.0 26.0 0.00 0.00 0.00 51 1009.1
20260503234049 56 275 7.0 22.0 0.00 0.00 0.00 51 1009.2
20260503233523 57 258 8.0 16.0 0.00 0.00 0.00 50 1009.0
20260503233048 57 263 8.0 16.0 0.00 0.00 0.00 50 1009.0
20260503232537 57 237 6.0 16.0 0.00 0.00 0.00 50 1008.9
20260503232042 57 233 6.0 14.0 0.00 0.00 0.00 48 1008.8
20260503231524 57 235 7.0 14.0 0.00 0.00 0.00 47 1008.7
20260503231108 57 221 5.0 16.0 0.00 0.00 0.00 47 1008.7
20260503230537 57 244 5.0 12.0 0.00 0.00 0.00 46 1008.7
20260503230032 58 242 4.0 17.0 0.00 0.00 0.00 46 1008.7
20260503225540 58 261 7.0 17.0 0.00 0.01 0.00 44 1008.5
20260503225041 57 254 4.0 12.0 0.00 0.01 0.00 45 1008.5
20260503224545 57 209 5.0 11.0 0.00 0.01 0.00 46 1008.4
20260503224047 57 182 2.0 10.0 0.00 0.01 0.00 47 1008.5
20260503223553 57 255 4.0 10.0 0.00 0.01 0.00 46 1008.4
20260503223025 57 271 2.0 11.0 0.00 0.01 0.00 47 1008.6
20260503222554 57 262 4.0 12.0 0.00 0.01 0.00 47 1008.7
20260503222024 57 275 6.0 14.0 0.00 0.01 0.00 45 1008.7
20260503221555 58 253 6.0 14.0 0.00 0.01 0.00 46 1008.7
20260503221024 58 293 5.0 12.0 0.00 0.01 0.00 46 1008.8
20260503220539 58 262 6.0 13.0 0.00 0.01 0.00 44 1008.8
20260503220028 58 277 7.0 14.0 0.00 0.01 0.00 44 1008.8
20260503215534 58 254 7.0 16.0 0.00 0.01 0.00 44 1008.8
20260503215028 58 259 5.0 14.0 0.00 0.01 0.00 44 1008.8
20260503214539 58 246 7.0 14.0 0.00 0.01 0.00 44 1008.8
20260503214037 58 248 5.0 18.0 0.00 0.01 0.00 43 1008.7
20260503213542 59 240 7.0 18.0 0.00 0.01 0.00 42 1008.5
20260503213033 59 286 5.0 17.0 0.00 0.01 0.00 44 1008.5
20260503212524 59 261 4.0 9.0 0.00 0.01 0.00 44 1008.6
20260503212025 59 259 3.0 14.0 0.00 0.01 0.00 45 1008.5
20260503211534 59 257 4.0 15.0 0.00 0.01 0.00 43 1008.4
20260503211053 59 256 3.0 15.0 0.00 0.01 0.00 43 1008.4
20260503210526 59 244 5.0 10.0 0.00 0.01 0.00 43 1008.5
20260503210034 59 221 3.0 10.0 0.00 0.01 0.00 43 1008.4
20260503205529 59 230 4.0 7.0 0.00 0.01 0.00 43 1008.6
20260503205102 59 233 2.0 6.0 0.00 0.01 0.00 45 1008.7
20260503204542 59 219 2.0 7.0 0.00 0.01 0.00 42 1008.8
20260503204055 59 241 3.0 9.0 0.00 0.01 0.00 44 1008.7
20260503203521 59 223 4.0 15.0 0.00 0.01 0.00 42 1008.8
20260503203038 59 244 6.0 15.0 0.00 0.01 0.00 40 1008.9
20260503202536 58 240 5.0 8.0 0.00 0.01 0.00 45 1008.9
20260503202036 58 256 3.0 10.0 0.00 0.01 0.00 46 1009.0
20260503201617 58 244 3.0 11.0 0.00 0.01 0.00 45 1009.1